Regional Weather Roundup
Issued by NWS Grand Forks, ND

Home | Current Version | Previous Version | Text Only | Print | Product List | Glossary Off
Versions: 1 2 3 4 5 6 7 8 9 10 11 12 13 14 15 16 17 18 19 20 21 22 23 24 25 26 27 28 29 30 31 32 33 34 35 36 37 38 39 40 41 42 43 44 45 46 47 48 49 50

000
ASUS43 KFGF 221810
RWRFGF
PRAIRIE TO PINES  WEATHER ROUNDUP
NATIONAL WEATHER SERVICE EASTERN NORTH DAKOTA/GRAND FORKS ND
100 PM CDT MON SEP 22 2014

 **SATELLITE DATA USED TO AUGMENT SKY COVER AT AUTOMATED STATIONS**
 *****  WEATHER ACROSS EASTERN NORTH DAKOTA  *****

CITY           SKY/WX    TMP DP  RH WIND       PRES   REMARKS
GRAND FORKS    SUNNY     75  49  39 SW8       30.10F
6HR MIN TEMP:  44; 6HR MAX TEMP:  75;

GRAND FRKS AFB SUNNY     76  49  38 SW9       30.11F
GRAND FRKS NWS   N/A     75 N/A N/A SW14        N/A
DEVILS LAKE    SUNNY     72  46  40 SW7       30.08F
6HR MIN TEMP:  54; 6HR MAX TEMP:  72;

FARGO          SUNNY     73  49  42 SW15      30.14F
WAHPETON ARPT  CLEAR     72  43  35 SW7       30.16F
$$

 ***** WEATHER ACROSS CENTRAL AND WESTERN NORTH DAKOTA  *****

CITY           SKY/WX    TMP DP  RH WIND       PRES   REMARKS
BISMARCK       SUNNY     78  45  30 S17       30.05F
6HR MIN TEMP:  42; 6HR MAX TEMP:  78;

MINOT          SUNNY     75  42  30 SE14      30.02F
6HR MIN TEMP:  48; 6HR MAX TEMP:  76;

JAMESTOWN      SUNNY     74  44  34 S13       30.10F
6HR MIN TEMP:  43; 6HR MAX TEMP:  74;

MINOT AFB      SUNNY     76  43  31 S15       30.01F
GARRISON         N/A     72  47  40 SE13      30.03F
WILLISTON      SUNNY     74  43  32 SE8       29.96F
6HR MIN TEMP:  38; 6HR MAX TEMP:  74;

DICKINSON      SUNNY     72  47  40 SE12      29.99F
6HR MIN TEMP:  45; 6HR MAX TEMP:  72;

HETTINGER      PTSUNNY   67  44  43 SE16      30.02F
6HR MIN TEMP:  45; 6HR MAX TEMP:  70;

$$

 *****  OTHER AIRPORT OBSERVATIONS IN OUR AREA  *****

CITY           SKY/WX    TMP DP  RH WIND       PRES   REMARKS
WALHALLA       FAIR      75  45  33 W9        30.06F
GRAFTON AIRPOR FAIR      73  50  43 SW10      30.08F
VALLEY CITY AR FAIR      72  46  40 SW14G21   30.13F
CANDO          FAIR      73  45  35 S5        30.08F
CAVALIER APRT  FAIR      73  48  40 SW13      30.07S
GWINNER        CLEAR     73  48  40 S12G18    30.16F
ROLLA          FAIR      72  45  37 SW6       30.08F
 ***** THE ABOVE OBSERVATIONS ARE NON NWS ARE NOT QUALITY
       CONTROLLED AND MAY MIS-REPORT RAIN FOR SNOW...
$$

  *****  WEATHER ACROSS NORTHERN MINNESOTA  *****

CITY           SKY/WX    TMP DP  RH WIND       PRES   REMARKS
FLAG ISLAND    SUNNY     68  48  49 SW9       30.05F
WARROAD        SUNNY     70  55  60 SW10G16   30.09S
ROSEAU         SUNNY     72  52  49 SW8       30.09S
HALLOCK        SUNNY     73  52  46 SW8       30.07F
THF RVR FALLS  SUNNY     70  48  46 SW10      30.12F
6HR MIN TEMP:  46; 6HR MAX TEMP:  70;

BAUDETTE       SUNNY     70  48  45 SW8G17    30.09F
6HR MIN TEMP:  47; 6HR MAX TEMP:  70;

WASKISH        SUNNY     66  54  63 CALM      30.12F
CROOKSTON      SUNNY     70  54  56 S9        30.13F
STEPHEN NDAWN    N/A     72  55  56 SW9         N/A
GREENBUSH NDAW   N/A     72  52  49 SW9         N/A
$$
  *****  WEATHER ACROSS CENTRAL AND WEST MINNESOTA  *****

CITY           SKY/WX    TMP DP  RH WIND       PRES   REMARKS
FOSSTON        SUNNY     72  54  53 SW10      30.16S
BEMIDJI        SUNNY     70  47  44 W9        30.15F
PARK RAPIDS    SUNNY     70  48  45 W10       30.18F
6HR MIN TEMP:  42; 6HR MAX TEMP:  70;

ELBOW LAKE     FAIR      69  50  50 SW7       30.19F
6HR MIN TEMP:  43; 6HR MAX TEMP:  69;

WADENA         SUNNY     68  48  49 W8        30.19F
DETROIT LAKES  SUNNY     68  48  49 SW8       30.19F
MOORHEAD       SUNNY     72  48  43 W8        30.16F
FERGUS FALLS   SUNNY     72  45  37 SW9       30.18F
MORRIS MN      SUNNY     72  52  49 S8        30.19F
STAPLES        SUNNY     70  48  46 W7        30.19F
$$
  *****  WEATHER ELSEWHERE ACROSS MINNESOTA  *****

CITY           SKY/WX    TMP DP  RH WIND       PRES   REMARKS
DULUTH         MOSUNNY   68  50  52 W15G22    30.16F
6HR MIN TEMP:  48; 6HR MAX TEMP:  68;

INTRNTL FALLS  SUNNY     70  50  49 W9        30.09F
6HR MIN TEMP:  43; 6HR MAX TEMP:  70;

ELY            SUNNY     66  46  48 W9        30.12S
CLOQUET        SUNNY     66  48  52 W14       30.17F
WHEATON        SUNNY     72  46  40 S7        30.19F
BRAINERD       SUNNY     67  49  52 W10       30.20F
6HR MIN TEMP:  40; 6HR MAX TEMP:  67;

HIBBING        SUNNY     69  50  50 W10G17    30.15F
6HR MIN TEMP:  36; 6HR MAX TEMP:  69;

ALEXANDRIA     SUNNY     69  50  50 SW10      30.22F
6HR MIN TEMP:  49; 6HR MAX TEMP:  69;

SAINT CLOUD    MOSUNNY   71  50  47 SW5       30.22F
6HR MIN TEMP:  44; 6HR MAX TEMP:  71;

MINNEAPOLIS    MOSUNNY   68  51  54 W9        30.24F
6HR MIN TEMP:  49; 6HR MAX TEMP:  68;

$$

  *****  WEATHER ACROSS SOUTH DAKOTA  *****

CITY           SKY/WX    TMP DP  RH WIND       PRES   REMARKS
SIOUX FALLS    PTSUNNY   70  47  43 S10       30.23F
6HR MIN TEMP:  43; 6HR MAX TEMP:  70;

BROOKINGS      NOT AVBL
WATERTOWN      SUNNY     71  46  40 SW12      30.19F
6HR MIN TEMP:  41; 6HR MAX TEMP:  71;

HURON          MOSUNNY   72  47  40 MISG      30.17F
6HR MIN TEMP:  43; 6HR MAX TEMP:  72;

SISSETON         N/A     73  47  39 SW9       30.16F
ABERDEEN       SUNNY     74  47  38 S13       30.15F
6HR MIN TEMP:  39; 6HR MAX TEMP:  74;

MITCHELL       MOSUNNY   72  48  42 S13G20    30.20F
PIERRE         MOSUNNY   76  46  34 SE16      30.07F
6HR MIN TEMP:  44; 6HR MAX TEMP:  76;

MOBRIDGE       MOSUNNY   77  49  37 S18G24    30.05F
RAPID CITY     SUNNY     75  46  35 S21G28    30.00F
6HR MIN TEMP:  48; 6HR MAX TEMP:  75;

$$

  *****  SOME WEATHER IN NEARBY STATES *****

CITY           SKY/WX    TMP DP  RH WIND       PRES   REMARKS
GLASGOW MT     SUNNY     70  44  39 SE14G21   29.91F
6HR MIN TEMP:  47; 6HR MAX TEMP:  70;

GREAT FALLS MT MOSUNNY   76  50  40 W12       29.92F
6HR MIN TEMP:  48; 6HR MAX TEMP:  76;

CHEYENNE WY    MOSUNNY   71  50  47 S15       30.19F
6HR MIN TEMP:  50; 6HR MAX TEMP:  72; 6HR PCP:  0.04;

SCOTTSBLUFF NE CLOUDY    64  55  72 S12       30.12F
6HR MIN TEMP:  55; 6HR MAX TEMP:  64; 6HR PCP:  0.01;

OMAHA NE       MOSUNNY   69  48  47 S8        30.29F
6HR MIN TEMP:  47; 6HR MAX TEMP:  69;

DES MOINES IA  MOSUNNY   69  50  50 VRB5      30.29F
6HR MIN TEMP:  49; 6HR MAX TEMP:  70;

DAVENPORT IA   SUNNY     65  40  39 SE3       30.30F
6HR MIN TEMP:  38; 6HR MAX TEMP:  65;

CHICAGO IL     MOSUNNY   58  40  51 CALM      30.28F
6HR MIN TEMP:  47; 6HR MAX TEMP:  58;

EAU CLAIRE WI  PTSUNNY   66  51  58 W12       30.24F
6HR MIN TEMP:  42; 6HR MAX TEMP:  66;

LA CROSSE WI   MOSUNNY   69  50  50 NW12      30.25F
6HR MIN TEMP:  48; 6HR MAX TEMP:  69;

$$

  *****  SOME NATIONAL WEATHER *****

CITY           SKY/WX    TMP DP  RH WIND       PRES   REMARKS
LA GUARDIA NY  PTSUNNY   70  47  43 W17G28    29.90R
6HR MIN TEMP:  65; 6HR MAX TEMP:  70;

RALEIGH NC     PTSUNNY   74  50  42 VRB3      30.04F
6HR MIN TEMP:  65; 6HR MAX TEMP:  74;

ATLANTA GA     MOSUNNY   78  51  38 VRB3      30.06F
6HR MIN TEMP:  64; 6HR MAX TEMP:  79; 6HR PCP:  0.02;

NEW ORLEANS LA MOSUNNY   89  68  49 N8        30.02F HX  93
6HR MIN TEMP:  73; 6HR MAX TEMP:  89;

OKLAHOMA CITY  MOSUNNY   78  45  30 NE8       30.27F
6HR MIN TEMP:  59; 6HR MAX TEMP:  78;

ALBUQUERQUE NM PTSUNNY   73  56  54 W6        30.32F
6HR MIN TEMP:  66; 6HR MAX TEMP:  74;

SALT LAKE CITY MOSUNNY   71  53  52 SE5       30.15F
6HR MIN TEMP:  60; 6HR MAX TEMP:  72;

LOS ANGELES CA MOSUNNY   72  63  73 W8        30.00S


USA.gov is the U.S. government's official web portal to all federal, state and local government web resources and services.